Regional Weather Roundup
Issued by NWS

Home | Current Version | Previous Version | Graphics & Text | Print | Product List | Glossary On
Versions: 1 2 3 4 5 6 7 8 9 10 11 12 13 14 15 16 17 18 19 20 21 22 23 24 25 26 27
000
ASUS45 KBOU 161210
RWRCO

WEATHER ROUNDUP FOR COLORADO
NATIONAL WEATHER SERVICE DENVER/BOULDER CO
500 AM MST TUE JAN 16 2018

NOTE: "FAIR" INDICATES FEW OR NO CLOUDS BELOW 12000 FEET WITH NO
SIGNIFICANT WEATHER AND/OR OBSTRUCTIONS TO VISIBILITY.

COZ001>005-013-030-031-161300-
...NORTHWEST COLORADO...

CITY           SKY/WX    TMP DP  RH WIND       PRES   REMARKS
CRAIG          FAIR      -1  -7  75 SW3       30.44F
HAYDEN         FAIR       4  -5  66 E14       30.44F WCI -14
MEEKER         FAIR      10   3  73 E6        30.42F WCI   0
RABBIT EARS PA FAIR       9   1  72 CALM      30.30S
STEAMBOAT SPGS FAIR      -2  -4  87 CALM      30.43S
WALDEN         FAIR      -8 -17  65 SE8       30.40F WCI -23
$$

COZ006>008-011-161300-
...WEST CENTRAL VALLEYS...

CITY           SKY/WX    TMP DP  RH WIND       PRES   REMARKS
GRAND JUNCTION FAIR      23  11  60 E7        30.40R WCI  15
MONTROSE       FAIR      17  13  84 SE8       30.42S WCI   7
EAGLE          FAIR       7   3  84 SE3       30.48S
RIFLE          FAIR      18  13  80 CALM      30.43S
DELTA          FAIR      18  14  83 E7        30.42R WCI   9
NUCLA          FAIR      23  18  80 E9        30.37S WCI  13
$$

COZ017>023-064>068-161300-
...SOUTHWEST COLORADO...

CITY           SKY/WX    TMP DP  RH WIND       PRES   REMARKS
DURANGO        FAIR      19  16  88 NE7       30.33R WCI  10
CORTEZ         FAIR      16  13  88 E3        30.31R
PAGOSA SPRINGS FAIR      18  15  88 CALM      30.32S
TELLURIDE      FAIR      18   0  46 SE8       30.31S WCI   7
WOLF CREEK PAS FAIR      16 -13  27 CALM      30.32F
$$

COZ009-010-012-014-032>034-037-058>063-161300-
...CENTRAL COLORADO...

CITY           SKY/WX    TMP DP  RH WIND       PRES   REMARKS
ASPEN          FAIR       6   1  80 S6        30.36R WCI  -4
BUENA VISTA    FAIR       2  -3  82 W3        30.38R
COPPER MTN     NOT AVBL
BERTHOUD PASS  FAIR       1  -9  60 N5        30.24R WCI  -8
COTTONWOOD PAS NOT AVBL
GUNNISON       CLOUDY    11   6  81 CALM      30.39R
KREMMLING      NOT AVBL
LEADVILLE      FAIR      -7 -19  56 NE7       30.30S WCI -21
MONARCH PASS   FAIR      12 -13  31 W12       30.37F WCI  -2
SALIDA         FAIR      11   5  77 W7        30.46S WCI   0
SUNLIGHT       FAIR       9   3  78 E5        30.34F WCI   0
WILKERSON PASS FAIR      12 -42   7 NW6       30.28S WCI   3
$$

COZ069>075-161300-
...SAN LUIS VALLEY/SANGRE DE CRISTO MOUNTAINS...

CITY           SKY/WX    TMP DP  RH WIND       PRES   REMARKS
ALAMOSA        CLOUDY    18  13  80 CALM      30.36R
DEL NORTE      FAIR       6   0  77 CALM      30.36S
LA VETA PASS   CLOUDY    14  10  85 MISG        N/A  FOG
SAGUACHE       CLOUDY    12   9  85 W3        30.37R
$$

COZ035-036-038>040-161300-
...NORTHERN COLORADO FRONT RANGE...

CITY           SKY/WX    TMP DP  RH WIND       PRES   REMARKS
DENVER INTL AP FAIR       3  -5  69 SW8       30.45F WCI -10
DMNS CITY PARK NOT AVBL
AURORA         CLEAR     -1  -6  80 S7        30.44F WCI -14
FRONT RANGE AP FAIR      -2  -7  79 S7        30.45F WCI -15
ERIE MUNI ARPT FAIR      -2  -6  84 CALM      30.54S
BOULDER MUN AP FAIR       5   1  85 CALM      30.47S
CENTENNIAL     FAIR       3  -1  83 SE8       30.42F WCI -10
BROOMFIELD     FAIR       3  -2  78 SW6       30.44S WCI  -8
FORT COLLINS   FAIR       0  -4  83 CALM      30.50F
LONGMONT       FAIR       0  -6  78 W5        30.51F WCI -10
$$

COZ041-046-047-076>085-087-088-161300-
...PIKES PEAK/PALMER DIVIDE AND SOUTHERN FOOTHILLS...

CITY           SKY/WX    TMP DP  RH WIND       PRES   REMARKS
COLO. SPRINGS  FAIR       5  -1  76 CALM      30.44F
A. F. ACADEMY  CLOUDY     6   2  84 NW3       30.40F
SCHRIEVER AFB  FAIR       0  -4  83 W9        30.44S WCI -15
CHEYENNE MTN   FAIR       8   6  92 CALM      30.33S
ELLICOTT         N/A    N/A N/A N/A CALM        N/A
FALCON         LGT SNOW   3   1  88 W8        30.39S WCI -10
FORT CARSON    FAIR       2  -3  79 N3        30.44F
LIMON          FAIR      -5 -11  75 CALM      30.48S
MONUMENT HILL  FAIR      -4  -9  77 SW7       30.38S WCI -18
CANON CITY     FAIR      10   1  67 CALM      30.48F
WALSENBURG     FAIR      -2  -6  84 W8        30.44F WCI -17
TRINIDAD       FAIR      -2  -6  83 NW6       30.47F WCI -14
$$

COZ042>045-048>051-090-091-161300-
...NORTHEAST COLORADO...

CITY           SKY/WX    TMP DP  RH WIND       PRES   REMARKS
GREELEY ARPT   FAIR      -6 -10  83 CALM      30.54S
AKRON          FAIR      -6 -11  79 W8        30.51F WCI -21
BURLINGTON     FAIR      -4  -9  79 NW13      30.55F WCI -23
WRAY           FAIR      -8 -13  77 W5        30.62S WCI -19
YUMA           FAIR      -9 -15  77 W7        30.57S WCI -24
STERLING       FAIR      -6  -9  84 CALM      30.57F
HOLYOKE        FAIR      -6 -13  71 W9        30.61F WCI -22
FORT MORGAN    FAIR      -9 -15  72 W7        30.54F WCI -23
$$

COZ086-089-092>099-161300-
...SOUTHEAST COLORADO...

CITY           SKY/WX    TMP DP  RH WIND       PRES   REMARKS
PUEBLO         FAIR       3  -4  72 E6        30.54F WCI  -8
LA JUNTA       FAIR       3  -5  69 CALM      30.57F
LAMAR          FAIR      -8 -14  74 S5        30.61F WCI -19
SPRINGFIELD      N/A     -6  -9  86 NW8       30.55F WCI -21
$$




USA.gov is the U.S. government's official web portal to all federal, state and local government web resources and services.